Latest Coastal Weather Observations for Coconut Island

IDQ60701

Issued at 2:32 am EST Friday 5 March 2021 (issued every 10 minutes, with the page automatically refreshed every 10 minutes)

About coastal observations | Map of coastal stations | Coastal observations for QLD | Marine services | Other Formats
Station Details ID: 027054 Name: COCONUT ISLAND Lat: -10.05 Lon: 143.07 Height: 3.5 m
Data from the previous 72 hours. | See also: Recent months at Coconut Island
Date/Time
EST
Wind Sea
Height
m
Swell Vis
km
Cloud Weather Temp
°C
Press
MSL
hPa
Rain since
9am
mm
Dir  Spd
kts
Gust
kts
Height
m
Period
s
Dir
05/02:30am - - - - - - - - - - 28.0 1006.9 0.0
05/02:00am - - - - - - - - - - 28.2 1006.9 0.0
05/01:30am - - - - - - - - - - 28.3 1007.3 0.0
05/01:00am - - - - - - - - - - 28.4 1007.6 0.0
05/12:30am - - - - - - - - - - 28.4 1007.8 0.0
05/12:00am - - - - - - - - - - 28.6 1007.9 0.0
 
Date/Time
EST
Wind Sea
Height
m
Swell Vis
km
Cloud Weather Temp
°C
Press
MSL
hPa
Rain since
9am
mm
Dir  Spd
kts
Gust
kts
Height
m
Period
s
Dir
04/11:30pm - - - - - - - - - - 28.5 1007.9 0.0
04/11:00pm - - - - - - - - - - 28.6 1008.1 0.0
04/10:30pm - - - - - - - - - - 28.7 1008.1 0.0
04/10:00pm - - - - - - - - - - 28.8 1008.1 0.0
04/09:30pm - - - - - - - - - - 28.9 1007.8 0.0
04/09:00pm - - - - - - - - - - 29.0 1007.5 0.0
04/08:30pm - - - - - - - - - - 28.9 1007.3 0.0
04/08:00pm - - - - - - - - - - 29.0 1007.2 0.0
04/07:30pm - - - - - - - - - - 28.9 1006.9 0.0
04/07:00pm - - - - - - - - - - 28.9 1006.4 0.0
04/06:30pm - - - - - - - - - - 28.9 1006.1 0.0
04/06:00pm - - - - - - - - - - 28.9 1005.7 0.0
04/05:30pm - - - - - - - - - - 28.7 1005.5 0.0
04/05:00pm - - - - - - - - - - 28.9 1005.4 0.0
04/04:30pm - - - - - - - - - - 29.0 1005.3 0.0
04/04:00pm - - - - - - - - - - 29.2 1005.3 0.0
04/03:30pm - - - - - - - - - - 29.3 1005.5 0.0
04/03:00pm - - - - - - - - - - 29.9 1005.6 0.0
04/02:30pm - - - - - - - - - - 29.3 1005.9 0.0
04/02:00pm - - - - - - - - - - 28.9 1006.4 0.0
04/01:30pm - - - - - - - - - - 28.9 1007.0 0.0
04/01:00pm - - - - - - - - - - 28.6 1007.8 0.0
04/12:30pm - - - - - - - - - - 28.5 1008.2 0.0
04/12:00pm - - - - - - - - - - 28.6 1008.6 0.0
04/11:30am - - - - - - - - - - 28.7 1008.8 0.0
04/11:00am - - - - - - - - - - 28.1 1009.2 0.0
04/10:30am - - - - - - - - - - 28.2 1009.5 0.0
04/10:00am - - - - - - - - - - 26.9 1009.7 0.0
04/09:30am - - - - - - - - - - 26.5 1009.9 0.0
04/09:00am - - - - - - - - - - 25.9 1010.0 2.0
04/08:30am - - - - - - - - - - 25.5 1009.4 2.0
04/08:00am - - - - - - - - - - 25.0 1009.0 2.0
04/07:30am - - - - - - - - - - 24.4 1008.9 1.8
04/07:00am - - - - - - - - - - 24.7 1008.5 1.8
04/06:30am - - - - - - - - - - 25.0 1008.0 1.6
04/06:00am - - - - - - - - - - 25.9 1007.6 1.4
04/05:30am - - - - - - - - - - 25.3 1007.5 1.4
04/05:00am - - - - - - - - - - 25.2 1007.5 1.4
04/04:30am - - - - - - - - - - 24.8 1007.6 1.4
04/04:00am - - - - - - - - - - 25.4 1007.4 1.2
04/03:30am - - - - - - - - - - 26.6 1006.8 1.2
04/03:00am - - - - - - - - - - 26.3 1006.8 1.2
04/02:30am - - - - - - - - - - 26.1 1007.0 1.2
04/02:00am - - - - - - - - - - 26.0 1007.1 1.2
04/01:30am - - - - - - - - - - 25.7 1007.0 1.2
04/01:00am - - - - - - - - - - 25.4 1007.2 1.2
04/12:30am - - - - - - - - - - 25.5 1007.5 1.2
04/12:00am - - - - - - - - - - 25.5 1008.1 1.2
 
Date/Time
EST
Wind Sea
Height
m
Swell Vis
km
Cloud Weather Temp
°C
Press
MSL
hPa
Rain since
9am
mm
Dir  Spd
kts
Gust
kts
Height
m
Period
s
Dir
03/11:30pm - - - - - - - - - - 25.9 1008.0 1.2
03/11:00pm - - - - - - - - - - 26.3 1008.1 1.2
03/10:30pm - - - - - - - - - - 26.3 1008.1 1.2
03/10:00pm - - - - - - - - - - 26.8 1007.7 0.8
03/09:30pm - - - - - - - - - - 26.6 1007.6 0.8
03/09:00pm - - - - - - - - - Recent precip. 26.6 1007.2 0.8
03/08:30pm - - - - - - - - - - 25.7 1007.4 0.8
03/08:00pm - - - - - - - - - - 25.4 1006.2 0.4
03/07:30pm - - - - - - - - - - 29.0 1007.0 0.2
03/07:00pm - - - - - - - - - - 28.6 1005.9 0.2
03/06:30pm - - - - - - - - - - 28.1 1005.4 0.2
03/06:00pm - - - - - - - - - - 29.2 1005.1 0.2
03/05:30pm - - - - - - - - - - 29.3 1004.5 0.2
03/05:00pm - - - - - - - - - - 29.3 1004.3 0.2
03/04:30pm - - - - - - - - - - 29.6 1004.2 0.2
03/04:00pm - - - - - - - - - - 29.7 1004.3 0.2
03/03:30pm - - - - - - - - - - 30.0 1004.3 0.2
03/03:00pm - - - - - - - - - - 29.8 1004.6 0.2
03/02:30pm - - - - - - - - - - 30.0 1004.7 0.2
03/02:00pm - - - - - - - - - - 29.7 1005.3 0.2
03/01:30pm - - - - - - - - - - 29.6 1005.6 0.2
03/01:00pm - - - - - - - - - - 29.3 1006.2 0.2
03/12:30pm - - - - - - - - - - 29.6 1006.9 0.0
03/12:00pm - - - - - - - - - - 29.4 1007.1 0.0
03/11:30am - - - - - - - - - - 29.4 1007.4 0.0
03/11:00am - - - - - - - - - - 29.4 1007.4 0.0
03/10:30am - - - - - - - - - - 29.1 1007.6 0.0
03/10:00am - - - - - - - - - - 29.3 1008.0 0.0
03/09:30am - - - - - - - - - - 29.3 1008.2 0.0
03/09:00am - - - - - - - - - - 29.3 1008.3 19.6
03/08:30am - - - - - - - - - - 29.2 1008.1 19.6
03/08:00am - - - - - - - - - - 29.0 1007.7 19.6
03/07:30am - - - - - - - - - - 28.9 1007.5 19.6
03/07:00am - - - - - - - - - - 28.5 1007.2 19.6
03/06:30am - - - - - - - - - - 27.6 1006.8 19.6
03/06:00am - - - - - - - - - - 28.0 1006.6 19.6
03/05:30am - - - - - - - - - - 28.2 1006.4 19.6
03/05:00am - - - - - - - - - - 28.6 1006.1 19.6
03/04:30am - - - - - - - - - - 28.6 1005.9 19.6
03/04:00am - - - - - - - - - - 28.5 1005.8 19.6
03/03:30am - - - - - - - - - - 28.5 1005.8 19.6
03/03:00am - - - - - - - - - - 28.6 1006.3 19.6
03/02:30am - - - - - - - - - - 28.6 1006.4 19.6
03/02:00am - - - - - - - - - - 28.2 1006.4 19.6
03/01:30am - - - - - - - - - - 28.3 1006.5 19.6
03/01:00am - - - - - - - - - - 26.2 1007.2 19.6
03/12:30am - - - - - - - - - - 26.9 1007.3 19.6
03/12:00am - - - - - - - - - - 26.0 1007.6 19.6
 
Date/Time
EST
Wind Sea
Height
m
Swell Vis
km
Cloud Weather Temp
°C
Press
MSL
hPa
Rain since
9am
mm
Dir  Spd
kts
Gust
kts
Height
m
Period
s
Dir
02/11:30pm - - - - - - - - - - 25.5 1007.1 19.6
02/11:00pm - - - - - - - - - - 24.3 1007.2 19.6
02/10:30pm - - - - - - - - - - 25.1 1007.8 17.2
02/10:00pm - - - - - - - - - - 24.5 1008.0 17.2
02/09:30pm - - - - - - - - - - 24.0 1007.8 17.0
02/09:00pm - - - - - - - - - Rain 25.0 1007.5 13.6
02/08:30pm - - - - - - - - - - 24.8 1007.6 4.2
02/08:00pm - - - - - - - - - - 26.2 1007.0 1.4
02/07:30pm - - - - - - - - - - 28.7 1006.8 0.4
02/07:00pm - - - - - - - - - - 28.8 1006.2 0.4
02/06:30pm - - - - - - - - - - 29.0 1006.1 0.2
02/06:00pm - - - - - - - - - - 29.2 1005.8 0.0
02/05:30pm - - - - - - - - - - 29.3 1005.1 0.0
02/05:00pm - - - - - - - - - - 29.6 1004.8 0.0
02/04:30pm - - - - - - - - - - 29.8 1005.0 0.0
02/04:00pm - - - - - - - - - - 30.2 1005.1 0.0
02/03:30pm - - - - - - - - - - 30.8 1005.5 0.0
02/03:00pm - - - - - - - - - - 30.6 1005.5 0.0
02/02:30pm - - - - - - - - - - 30.5 1005.5 0.0
02/02:00pm - - - - - - - - - - 30.4 1005.7 0.0
02/01:30pm - - - - - - - - - - 30.3 1005.9 0.0
02/01:00pm - - - - - - - - - - 30.4 1006.5 0.0
02/12:30pm - - - - - - - - - - 30.0 1006.6 0.0
02/12:00pm - - - - - - - - - - 29.7 1007.0 0.0
02/11:30am - - - - - - - - - - 29.6 1007.4 0.0
02/11:00am - - - - - - - - - - 29.3 1007.6 0.0
02/10:30am - - - - - - - - - - 29.3 1007.8 0.0
02/10:00am - - - - - - - - - - 29.0 1007.8 0.0
02/09:30am - - - - - - - - - - 28.8 1007.8 0.0
02/09:00am - - - - - - - - - - 28.4 1007.9 53.8
02/08:30am - - - - - - - - - - 28.2 1007.9 53.8
02/08:00am - - - - - - - - - - 27.9 1007.9 53.8
02/07:30am - - - - - - - - - - 27.8 1007.3 53.8
02/07:00am - - - - - - - - - - 27.6 1007.2 53.8
02/06:30am - - - - - - - - - - 27.4 1007.1 53.8
02/06:00am - - - - - - - - - - 27.3 1007.0 53.8
02/05:30am - - - - - - - - - - 27.2 1006.6 53.8
02/05:00am - - - - - - - - - - 26.9 1006.6 53.8
02/04:30am - - - - - - - - - - 24.4 1006.5 53.8
02/04:00am - - - - - - - - - - 26.5 1006.4 45.0
02/03:30am - - - - - - - - - - 27.0 1006.0 43.0
02/03:00am - - - - - - - - - Rain 27.2 1006.2 42.8

Other formats

Comma delimited format used in spreadsheet applications
http://www.bom.gov.au/fwo/IDQ60701/IDQ60701.94182.axf

JavaScript Object Notation format (JSON) in row-major order
http://www.bom.gov.au/fwo/IDQ60701/IDQ60701.94182.json

Data quality

Most of these data are generated automatically and are frequently updated. Quality checks on data are not normally performed. It is possible for incorrect values to appear. Refer to information at About Latest Weather Observations and please check the disclaimer before using these data.